SHT14J EGLL-EGJB

Flight info

Callsign SHT14J
Flight time 0h 37m
Altitude 22000
Route GASGU2J GASGU N514 EVTES/N0391F210 N621 SAM/N0386F200 N63 LELNA LELNA1V
Aircraft A319/M-SDE3FGIJ1KRWXY/LB1

Departure

Time 2026-04-30 12:25
Airport London Heathrow Airport (EGLL)

Arrival

Time 2026-04-30 13:02
Airport Guernsey Airport (EGJB)
Time Latitude Longitude Altitude Speed Heading
2026-04-30 11:58 51.47403 -0.48891 90 ft 0 kts 179°
2026-04-30 12:04 51.47233 -0.48890 372 ft 171 kts 174°
2026-04-30 12:04 51.47403 -0.48891 626 ft 0 kts 179°
2026-04-30 12:18 51.47412 -0.48891 91 ft 4 kts 179°
2026-04-30 12:18 51.47439 -0.48891 88 ft 4 kts 179°
2026-04-30 12:18 51.47466 -0.48891 87 ft 4 kts 173°
2026-04-30 12:19 51.47490 -0.48906 88 ft 4 kts 138°
2026-04-30 12:19 51.47507 -0.48934 89 ft 2 kts 134°
2026-04-30 12:19 51.47508 -0.48935 90 ft 0 kts 134°
2026-04-30 12:21 51.47507 -0.48934 90 ft 0 kts 134°
2026-04-30 12:21 51.47500 -0.48921 91 ft 4 kts 134°
2026-04-30 12:21 51.47486 -0.48858 87 ft 8 kts 97°
2026-04-30 12:21 51.47487 -0.48732 88 ft 14 kts 89°
2026-04-30 12:22 51.47488 -0.48557 86 ft 17 kts 90°
2026-04-30 12:22 51.47391 -0.48474 86 ft 20 kts 180°
2026-04-30 12:22 51.47247 -0.48473 86 ft 22 kts 180°
2026-04-30 12:22 51.47089 -0.48472 86 ft 23 kts 180°
2026-04-30 12:23 51.46954 -0.48470 88 ft 16 kts 180°
2026-04-30 12:23 51.46839 -0.48469 86 ft 17 kts 179°
2026-04-30 12:23 51.46712 -0.48468 86 ft 19 kts 180°
2026-04-30 12:23 51.46571 -0.48468 87 ft 21 kts 180°
2026-04-30 12:24 51.46478 -0.48356 87 ft 19 kts 88°
2026-04-30 12:24 51.46479 -0.48067 87 ft 44 kts 90°
2026-04-30 12:24 51.46483 -0.47270 87 ft 99 kts 90°
2026-04-30 12:24 51.46489 -0.45874 175 ft 146 kts 89°
2026-04-30 12:25 51.46486 -0.44237 758 ft 149 kts 92°
2026-04-30 12:25 51.46493 -0.42564 1438 ft 154 kts 91°
2026-04-30 12:25 51.46171 -0.40829 1796 ft 178 kts 121°
2026-04-30 12:25 51.45392 -0.39092 2232 ft 205 kts 124°
2026-04-30 12:26 51.44417 -0.37242 2806 ft 232 kts 141°
2026-04-30 12:26 51.42852 -0.36372 3660 ft 250 kts 175°
2026-04-30 12:26 51.41167 -0.37208 4746 ft 266 kts 210°
2026-04-30 12:26 51.39908 -0.39460 5691 ft 278 kts 230°
2026-04-30 12:27 51.38900 -0.42117 6054 ft 279 kts 237°
2026-04-30 12:27 51.38013 -0.44893 6851 ft 280 kts 239°
2026-04-30 12:27 51.37150 -0.47703 7793 ft 283 kts 239°
2026-04-30 12:27 51.36260 -0.50539 8708 ft 288 kts 238°
2026-04-30 12:28 51.35332 -0.53411 9605 ft 293 kts 237°
2026-04-30 12:28 51.34363 -0.56320 10413 ft 301 kts 237°
2026-04-30 12:28 51.33336 -0.59327 10707 ft 324 kts 237°
2026-04-30 12:28 51.32214 -0.62589 11085 ft 342 kts 237°
2026-04-30 12:29 51.31056 -0.65958 11776 ft 349 kts 237°
2026-04-30 12:29 51.29881 -0.69376 12536 ft 353 kts 237°
2026-04-30 12:29 51.28690 -0.72838 13281 ft 358 kts 237°
2026-04-30 12:29 51.27486 -0.76331 14028 ft 362 kts 237°
2026-04-30 12:30 51.26263 -0.79869 14675 ft 366 kts 237°
2026-04-30 12:30 51.25026 -0.83441 15368 ft 368 kts 237°
2026-04-30 12:30 51.23781 -0.87024 16064 ft 370 kts 237°
2026-04-30 12:30 51.22530 -0.90626 16766 ft 372 kts 237°
2026-04-30 12:31 51.21269 -0.94251 17462 ft 374 kts 237°
2026-04-30 12:31 51.19842 -0.97707 18173 ft 373 kts 227°
2026-04-30 12:31 51.18245 -1.00975 18812 ft 375 kts 227°
2026-04-30 12:31 51.16635 -1.04269 19394 ft 379 kts 227°
2026-04-30 12:32 51.15012 -1.07592 19960 ft 382 kts 227°
2026-04-30 12:32 51.13369 -1.10949 20538 ft 386 kts 227°
2026-04-30 12:32 51.11708 -1.14340 21085 ft 390 kts 227°
2026-04-30 12:32 51.10035 -1.17758 21652 ft 393 kts 226°
2026-04-30 12:33 51.08222 -1.21012 22074 ft 392 kts 218°
2026-04-30 12:33 51.06124 -1.23717 22177 ft 384 kts 208°
2026-04-30 12:33 51.03884 -1.25990 22193 ft 380 kts 207°
2026-04-30 12:33 51.01659 -1.28243 22196 ft 380 kts 207°
2026-04-30 12:34 50.99434 -1.30502 22194 ft 379 kts 207°
2026-04-30 12:34 50.97215 -1.32757 22182 ft 379 kts 207°
2026-04-30 12:34 50.94966 -1.34932 22191 ft 376 kts 202°
2026-04-30 12:34 50.92638 -1.36804 22195 ft 376 kts 201°
2026-04-30 12:35 50.90306 -1.38674 22192 ft 376 kts 201°
2026-04-30 12:35 50.87983 -1.40534 22004 ft 372 kts 201°
2026-04-30 12:35 50.85682 -1.42375 21766 ft 368 kts 201°
2026-04-30 12:35 50.83433 -1.44172 21511 ft 366 kts 201°
2026-04-30 12:36 50.81165 -1.45978 21252 ft 364 kts 201°
2026-04-30 12:36 50.78907 -1.47772 20998 ft 363 kts 201°
2026-04-30 12:36 50.76655 -1.49557 20735 ft 361 kts 201°
2026-04-30 12:36 50.74413 -1.51334 20482 ft 360 kts 201°
2026-04-30 12:37 50.72180 -1.53100 20256 ft 358 kts 201°
2026-04-30 12:37 50.69954 -1.54858 20146 ft 357 kts 201°
2026-04-30 12:37 50.67730 -1.56617 20165 ft 358 kts 201°
2026-04-30 12:37 50.65508 -1.58373 20166 ft 358 kts 201°
2026-04-30 12:38 50.63280 -1.60128 20177 ft 358 kts 201°
2026-04-30 12:38 50.61052 -1.61881 20168 ft 358 kts 201°
2026-04-30 12:38 50.58825 -1.63631 20166 ft 358 kts 201°
2026-04-30 12:38 50.56600 -1.65383 20166 ft 358 kts 201°
2026-04-30 12:39 50.54373 -1.67136 20162 ft 358 kts 201°
2026-04-30 12:39 50.52144 -1.68889 20160 ft 358 kts 201°
2026-04-30 12:39 50.49919 -1.70632 20160 ft 358 kts 201°
2026-04-30 12:39 50.47686 -1.72380 20158 ft 358 kts 201°
2026-04-30 12:40 50.45461 -1.74126 20158 ft 358 kts 201°
2026-04-30 12:40 50.43232 -1.75876 20158 ft 358 kts 201°
2026-04-30 12:40 50.41005 -1.77623 20158 ft 358 kts 201°
2026-04-30 12:40 50.38778 -1.79365 20154 ft 358 kts 201°
2026-04-30 12:41 50.36551 -1.81096 20152 ft 357 kts 201°
2026-04-30 12:41 50.34325 -1.82826 20152 ft 357 kts 201°
2026-04-30 12:41 50.32096 -1.84559 20165 ft 357 kts 201°
2026-04-30 12:41 50.29873 -1.86286 20144 ft 356 kts 201°
2026-04-30 12:42 50.27656 -1.88005 20144 ft 356 kts 201°
2026-04-30 12:42 50.25439 -1.89720 20143 ft 356 kts 201°
2026-04-30 12:42 50.23221 -1.91433 20143 ft 356 kts 201°
2026-04-30 12:42 50.21005 -1.93149 20138 ft 356 kts 201°
2026-04-30 12:43 50.18785 -1.94862 20136 ft 356 kts 200°
2026-04-30 12:43 50.16567 -1.96572 20140 ft 356 kts 201°
2026-04-30 12:43 50.14342 -1.98284 20137 ft 356 kts 201°
2026-04-30 12:43 50.12119 -1.99995 20135 ft 357 kts 201°
2026-04-30 12:44 50.09896 -2.01706 20135 ft 357 kts 201°
2026-04-30 12:44 50.07672 -2.03416 20132 ft 357 kts 201°
2026-04-30 12:44 50.05445 -2.05123 20132 ft 357 kts 201°
2026-04-30 12:44 50.03219 -2.06828 20124 ft 357 kts 201°
2026-04-30 12:45 50.00993 -2.08534 20125 ft 357 kts 201°
2026-04-30 12:45 49.98829 -2.10458 20123 ft 362 kts 210°
2026-04-30 12:45 49.96895 -2.13011 20124 ft 369 kts 220°
2026-04-30 12:45 49.95180 -2.16003 20125 ft 371 kts 223°
2026-04-30 12:46 49.93471 -2.19011 20048 ft 372 kts 223°
2026-04-30 12:46 49.91786 -2.21964 19790 ft 369 kts 223°
2026-04-30 12:46 49.90091 -2.24928 19377 ft 365 kts 223°
2026-04-30 12:46 49.88409 -2.27859 18882 ft 363 kts 223°
2026-04-30 12:47 49.86733 -2.30775 18352 ft 361 kts 223°
2026-04-30 12:47 49.85068 -2.33669 17790 ft 358 kts 223°
2026-04-30 12:47 49.83416 -2.36537 17279 ft 354 kts 223°
2026-04-30 12:47 49.81783 -2.39370 16774 ft 351 kts 223°
2026-04-30 12:48 49.80713 -2.41226 16439 ft 349 kts 223°
2026-04-30 12:48 49.79106 -2.44013 15939 ft 346 kts 223°
2026-04-30 12:48 49.77511 -2.46780 15442 ft 343 kts 223°
2026-04-30 12:48 49.75928 -2.49519 14946 ft 341 kts 223°
2026-04-30 12:49 49.74351 -2.52237 14455 ft 339 kts 223°
2026-04-30 12:49 49.72775 -2.54929 13959 ft 336 kts 221°
2026-04-30 12:49 49.70981 -2.57163 13428 ft 328 kts 207°
2026-04-30 12:49 49.68945 -2.58623 12963 ft 319 kts 194°
2026-04-30 12:50 49.66802 -2.59303 12487 ft 311 kts 182°
2026-04-30 12:50 49.64649 -2.59420 12027 ft 307 kts 179°
2026-04-30 12:50 49.62524 -2.59511 11573 ft 304 kts 179°
2026-04-30 12:50 49.60416 -2.59605 11126 ft 302 kts 179°
2026-04-30 12:51 49.58324 -2.59703 10668 ft 300 kts 180°
2026-04-30 12:51 49.56255 -2.59804 10362 ft 293 kts 180°
2026-04-30 12:51 49.54261 -2.59904 10238 ft 281 kts 180°
2026-04-30 12:51 49.52335 -2.59997 10003 ft 274 kts 179°
2026-04-30 12:52 49.50448 -2.60083 9876 ft 271 kts 179°
2026-04-30 12:52 49.48557 -2.60166 9511 ft 274 kts 180°
2026-04-30 12:52 49.46652 -2.60379 9095 ft 275 kts 191°
2026-04-30 12:52 49.44959 -2.61629 8768 ft 279 kts 216°
2026-04-30 12:53 49.43793 -2.64029 8381 ft 287 kts 244°
2026-04-30 12:53 49.43433 -2.67063 8009 ft 292 kts 263°
2026-04-30 12:53 49.43315 -2.70164 7496 ft 289 kts 263°
2026-04-30 12:53 49.43205 -2.73236 6942 ft 287 kts 263°
2026-04-30 12:54 49.43095 -2.76284 6375 ft 284 kts 263°
2026-04-30 12:54 49.43054 -2.79312 5780 ft 285 kts 272°
2026-04-30 12:54 49.43513 -2.82268 5224 ft 286 kts 290°
2026-04-30 12:54 49.44512 -2.84910 4578 ft 289 kts 307°
2026-04-30 12:55 49.45888 -2.87196 3842 ft 294 kts 312°
2026-04-30 12:55 49.47289 -2.89454 3567 ft 288 kts 312°
2026-04-30 12:55 49.48362 -2.91939 3469 ft 272 kts 286°
2026-04-30 12:55 49.48460 -2.94675 3410 ft 248 kts 250°
2026-04-30 12:56 49.47630 -2.96817 3357 ft 225 kts 217°
2026-04-30 12:56 49.46323 -2.97880 3304 ft 205 kts 189°
2026-04-30 12:56 49.44951 -2.97870 3260 ft 196 kts 164°
2026-04-30 12:56 49.43743 -2.96937 3196 ft 196 kts 140°
2026-04-30 12:57 49.42929 -2.95268 3112 ft 199 kts 115°
2026-04-30 12:57 49.42678 -2.93174 3039 ft 203 kts 91°
2026-04-30 12:57 49.42727 -2.90992 3022 ft 205 kts 92°
2026-04-30 12:57 49.42766 -2.88808 2968 ft 205 kts 92°
2026-04-30 12:58 49.42801 -2.86624 2919 ft 205 kts 92°
2026-04-30 12:58 49.42836 -2.84442 2876 ft 204 kts 92°
2026-04-30 12:58 49.42870 -2.82272 2831 ft 203 kts 92°
2026-04-30 12:58 49.42918 -2.80091 2687 ft 205 kts 91°
2026-04-30 12:59 49.42985 -2.77916 2435 ft 201 kts 91°
2026-04-30 12:59 49.43050 -2.75826 2176 ft 190 kts 91°
2026-04-30 12:59 49.43108 -2.73891 1916 ft 173 kts 92°
2026-04-30 12:59 49.43160 -2.72166 1702 ft 149 kts 92°
2026-04-30 13:00 49.43202 -2.70698 1511 ft 131 kts 93°
2026-04-30 13:00 49.43238 -2.69315 1294 ft 126 kts 92°
2026-04-30 13:00 49.43277 -2.68029 1124 ft 120 kts 91°
2026-04-30 13:00 49.43316 -2.66754 986 ft 119 kts 90°
2026-04-30 13:01 49.43344 -2.65480 809 ft 118 kts 90°
2026-04-30 13:01 49.43378 -2.64213 654 ft 119 kts 89°
2026-04-30 13:01 49.43421 -2.62936 534 ft 121 kts 86°
2026-04-30 13:01 49.43456 -2.61675 381 ft 117 kts 87°
2026-04-30 13:02 49.43482 -2.60513 308 ft 88 kts 88°
2026-04-30 13:02 49.43494 -2.60036 317 ft 9 kts 88°
2026-04-30 13:02 49.43494 -2.59894 321 ft 14 kts 112°
2026-04-30 13:02 49.43404 -2.59858 324 ft 14 kts 180°
2026-04-30 13:03 49.43371 -2.59855 323 ft 0 kts 176°
2026-04-30 13:04 49.43368 -2.59855 324 ft 0 kts 176°
2026-04-30 13:06 49.43360 -2.59850 322 ft 5 kts 156°
2026-04-30 13:06 49.43347 -2.59806 327 ft 4 kts 94°
2026-04-30 13:06 49.43352 -2.59753 328 ft 8 kts 77°
2026-04-30 13:07 49.43354 -2.59635 330 ft 12 kts 126°
2026-04-30 13:07 49.43287 -2.59622 329 ft 11 kts 181°
2026-04-30 13:07 49.43264 -2.59621 328 ft 0 kts 178°
2026-04-30 13:07 49.43260 -2.59621 328 ft 0 kts 178°
2026-04-30 13:08 49.43257 -2.59620 328 ft 1 kts 178°
2026-04-30 13:08 49.43253 -2.59620 328 ft 0 kts 178°